{"data":{"norad_id":48330,"intl_designator":"2021-036BG","name":"STARLINK-2501","alt_names":[],"object_type":"PAYLOAD","status":"ACTIVE","operator":null,"country":"US","launch_date":"2021-04-29","launch_site_code":"AFETR","launch_vehicle":null,"mission":null,"orbit_class":"UNKNOWN","rcs_meters":null,"size_class":null,"mass_kg":null,"dimensions":null,"purposes":["comms"],"wikipedia_slug":null,"has_3d_model":false,"image_url":null,"decayed_at":null,"tle_current":{"epoch":"2026-09-19T16:26:11.081472Z","epoch_age_seconds":104159,"freshness":"FRESH","line1":"1 48330U 21036BG  26262.68485048  .00000153  00000+0  16696-4 0  9991","line2":"2 48330  53.1593 278.6585 0001561  63.3531 296.7630 15.31699596297769","mean_motion":15.31699596,"eccentricity":0.0001561,"inclination_deg":53.1593,"raan_deg":278.6585,"arg_perigee_deg":63.3531,"mean_anomaly_deg":296.763,"bstar":1.6696e-5,"rev_number":29776,"period_min":94.013212757941,"perigee_km":469.67208964194,"apogee_km":471.81030941584,"semimajor_km":6848.8781995289,"source":"CELESTRAK","updated_at":"2026-09-20T09:00:38.937721Z"}}}